[[{"header":{"parameterUnit":"m.s-1","parameterCategory":1,"la1":30.2991,"la2":30.254,"lo1":-89.0895,"lo2":-89.0444,"dy":0.0017,"dx":0.0017,"nx":28,"ny":28,"refTime":"2024-07-11T03:00:00:Z","depth":0,"parameterNumber":2,"parameterNumberName":"U-component_of_WINDS"},"data":[0,0,0,0,0,0,0,0,0,0,0,0,0,0,0,0,0,0,0,0,0,0,0,0,0,0,0,0,0,0,0,0,0,0,0,0,0,0,0,0,0,0,0,0,0,0,0,0,0,0,0,0,0,0,0,0,0,0,0.7901,0.7902,0,0.7961,0.7962,0.7963,0.7983,0.7982,0.7982,0.7982,0.8045,0.8046,0.8048,0,0,0,0,0,0,0,0,0,0,0,0,0,0.7804,0.7806,0.7901,0.7902,0.7903,0.7961,0.7962,0.7963,0.7983,0.7982,0.7982,0.7982,0.8044,0.8046,0.8048,0,0,0,0,0,0,0,0,0,0,0,0,0,0.7853,0.7806,0.7901,0.792,0.7922,0.7961,0.7962,0.7963,0.7983,0.7982,0.7982,0.7982,0.8043,0.8046,0.8049,0.8074,0,0,0.8058,0.8059,0,0,0,0,0,0,0,0,0.785,0.7857,0.7916,0.7919,0.7921,0.7964,0.7951,0.8,0.7983,0.796,0.7982,0.7981,0.8018,0.8023,0.8035,0.8077,0.808,0.8058,0.806,0.8061,0.8062,0,0,0,0,0,0,0,0.7847,0.7854,0.7925,0.7917,0.792,0.7925,0.7932,0.796,0.799,0.7962,0.7963,0.797,0.8019,0.8032,0.8037,0.8081,0.8058,0.806,0.8062,0.8063,0.8145,0.8146,0,0,0,0,0,0,0.784,0.7851,0.7923,0.7927,0.7884,0.7927,0.7934,0.7951,0.799,0.7996,0.797,0.7971,0.8028,0.8033,0.8039,0.8071,0.8061,0.8063,0.8065,0.8145,0.8145,0.8146,0,0,0,0,0,0,0.7838,0.7847,0.7921,0.789,0.7899,0.7929,0.7947,0.7952,0.7965,0.7997,0.8002,0.7978,0.8028,0.8035,0.8065,0.8073,0.8065,0.8067,0.8144,0.8145,0.8146,0.8135,0,0,0,0,0,0,0.7835,0.7846,0.7856,0.789,0.7901,0.7946,0.7948,0.7954,0.797,0.7971,0.8005,0.8011,0.8028,0.8061,0.8068,0.8077,0.807,0.8144,0.8145,0.8145,0.8135,0.8135,0.8136,0,0,0,0,0,0.7832,0.7851,0.7856,0.7865,0.7914,0.7946,0.7953,0.7972,0.797,0.7981,0.8001,0.801,0.8071,0.8063,0.8072,0.8082,0.8143,0.8144,0.8145,0.8134,0.8135,0.8136,0,0,0,0,0,0,0.7818,0.7856,0.7862,0.7893,0.7916,0.7949,0.7963,0.7972,0.7996,0.7996,0.8019,0.8027,0.8055,0.8072,0.8062,0.8108,0.8108,0.811,0.8096,0.8097,0.8098,0.8093,0.8072,0,0,0,0,0,0.7818,0.7841,0.7873,0.7897,0.7908,0.7933,0.7948,0.796,0.7986,0.7996,0.8018,0.8042,0.8067,0.8083,0.8108,0.8137,0.8144,0.8148,0.8148,0.8149,0.8151,0.8167,0.8169,0.8149,0.8149,0.8149,0,0,0.782,0.7843,0.7856,0.7894,0.7914,0.7937,0.7942,0.7966,0.7983,0.8,0.8029,0.8046,0.8075,0.8104,0.8118,0.8119,0.8158,0.815,0.815,0.8152,0.8168,0.817,0.8171,0.815,0.815,0.815,0,0,0.7834,0.7854,0.7876,0.7895,0.7924,0.794,0.7945,0.7977,0.7989,0.8019,0.8031,0.8052,0.8094,0.8114,0.8129,0.8149,0.8158,0.8156,0.8159,0.8174,0.8175,0.8177,0.8184,0.8186,0.8158,0.8158,0.8158,0,0.7832,0.7867,0.7886,0.7909,0.7925,0.794,0.7962,0.798,0.8016,0.8027,0.8026,0.8079,0.8099,0.8133,0.8138,0.815,0.8156,0.8153,0.8174,0.8175,0.8177,0.8184,0.8186,0.8158,0.8158,0.8158,0.8158,0,0.7863,0.7887,0.7901,0.7934,0.7952,0.7974,0.7996,0.8012,0.8022,0.8039,0.8068,0.8093,0.8122,0.8131,0.8142,0.8166,0.8165,0.8169,0.8169,0.8178,0.8185,0.8187,0.8157,0.8157,0.8157,0.8157,0,0,0.7871,0.7914,0.7919,0.7933,0.7966,0.7985,0.8007,0.8035,0.8048,0.8072,0.8091,0.8126,0.8129,0.8146,0.8159,0.8173,0.8186,0.8175,0.8176,0.8176,0.8214,0.8211,0.8213,0.8192,0.8192,0.8193,0.8211,0,0.789,0.7931,0.7948,0.7981,0.8003,0.8017,0.8036,0.8058,0.8074,0.8094,0.8112,0.8136,0.8138,0.8149,0.8162,0.8181,0.8194,0.818,0.821,0.8211,0.8203,0.8217,0.8214,0.823,0.8214,0.8214,0.8215,0,0.7917,0.794,0.7975,0.8004,0.8013,0.8031,0.8057,0.8077,0.8102,0.8112,0.813,0.8142,0.8166,0.8164,0.8197,0.8188,0.8201,0.8212,0.8213,0.8217,0.8214,0.8221,0.8236,0.8239,0.8219,0.8219,0.8218,0,0.7919,0.7959,0.7985,0.7997,0.8031,0.8043,0.8058,0.8082,0.8098,0.8121,0.8131,0.8156,0.817,0.819,0.8208,0.8205,0.824,0.8239,0.8249,0.8248,0.8256,0.8255,0.8273,0.8264,0.8264,0.8264,0.8264,0,0.7938,0.7959,0.7986,0.8002,0.8026,0.8045,0.8067,0.8083,0.8104,0.8124,0.8137,0.8155,0.8178,0.8198,0.8213,0.8238,0.8244,0.8253,0.8257,0.8252,0.8251,0.8261,0.8261,0.8265,0.8264,0.8264,0.8264,0,0.7945,0.7964,0.7993,0.8023,0.803,0.8046,0.8072,0.8088,0.8103,0.8127,0.8134,0.8158,0.8183,0.8203,0.8235,0.8245,0.8271,0.8275,0.8262,0.8264,0.8273,0.8272,0.8299,0.8303,0.829,0.829,0.829,0,0.7956,0.7972,0.8003,0.8016,0.8031,0.8053,0.8068,0.8087,0.8102,0.8131,0.8143,0.8168,0.819,0.8229,0.8249,0.8274,0.8279,0.8286,0.8283,0.8277,0.8279,0.8278,0.8279,0.8287,0.8287,0.8287,0.8287,0,0.7973,0.7981,0.8003,0.8027,0.8045,0.8066,0.8086,0.8097,0.8119,0.8136,0.8161,0.8177,0.8209,0.8234,0.8261,0.8276,0.8285,0.8288,0.8291,0.8287,0.8279,0.8283,0.8264,0.8287,0.8287,0.8287,0.8287,0.8287,0.7983,0.7997,0.8021,0.8044,0.8061,0.808,0.8096,0.8113,0.8134,0.8161,0.8171,0.8197,0.822,0.8256,0.8272,0.8292,0.8293,0.8298,0.8299,0.83,0.83,0.8275,0.8297,0.8297,0.8297,0.8297,0.8297,0,0.8,0.8016,0.8037,0.8065,0.8083,0.8089,0.8112,0.8126,0.8149,0.8169,0.819,0.8218,0.8242,0.8264,0.8289,0.83,0.8305,0.8306,0.8306,0.8309,0.8298,0.8292,0.8302,0.8302,0.8302,0.8302,0.8302,0.8302,0.8012,0.8037,0.8048,0.8081,0.8096,0.8121,0.8133,0.815,0.8167,0.8198,0.8217,0.8231,0.8252,0.8279,0.8301,0.8306,0.8315,0.8315,0.8322,0.8311,0.831,0.8309,0.8304,0.8317,0.8317,0.8332,0.8332,0.8332]},{"header":{"parameterUnit":"m.s-1","parameterCategory":1,"la1":30.2991,"la2":30.254,"lo1":-89.0895,"lo2":-89.0444,"dy":0.0017,"dx":0.0017,"nx":28,"ny":28,"refTime":"2024-07-11T03:00:00:Z","depth":0,"parameterNumber":3,"parameterNumberName":"V-component_of_WINDS"},"data":[0,0,0,0,0,0,0,0,0,0,0,0,0,0,0,0,0,0,0,0,0,0,0,0,0,0,0,0,0,0,0,0,0,0,0,0,0,0,0,0,0,0,0,0,0,0,0,0,0,0,0,0,0,0,0,0,0,0,3.399,3.3989,0,3.3934,3.3934,3.3933,3.3944,3.3945,3.3946,3.3947,3.388,3.3878,3.3875,0,0,0,0,0,0,0,0,0,0,0,0,0,3.4095,3.4093,3.399,3.3989,3.3988,3.3934,3.3934,3.3933,3.3943,3.3945,3.3946,3.3947,3.3881,3.3878,3.3875,0,0,0,0,0,0,0,0,0,0,0,0,0,3.4045,3.4093,3.399,3.3987,3.3987,3.3935,3.3934,3.3933,3.3943,3.3945,3.3946,3.3948,3.3882,3.3878,3.3874,3.3818,0,0,3.3862,3.386,0,0,0,0,0,0,0,0,3.4048,3.4041,3.3988,3.3987,3.3986,3.3948,3.3947,3.3894,3.3943,3.3959,3.3947,3.3948,3.3901,3.3895,3.3881,3.3815,3.3812,3.3861,3.3859,3.3857,3.3856,0,0,0,0,0,0,0,3.4052,3.4044,3.3967,3.3987,3.3986,3.3986,3.3981,3.3937,3.3922,3.3958,3.3959,3.3953,3.39,3.3885,3.388,3.3811,3.3862,3.3858,3.3855,3.3854,3.3695,3.3693,0,0,0,0,0,0,3.4057,3.4047,3.3969,3.3966,3.4022,3.3983,3.3977,3.3958,3.3922,3.3919,3.3951,3.3953,3.3891,3.3884,3.3877,3.3808,3.3857,3.3853,3.3851,3.3696,3.3694,3.3692,0,0,0,0,0,0,3.4059,3.405,3.3971,3.4006,3.3996,3.3979,3.3959,3.3956,3.3941,3.3917,3.3914,3.3939,3.3892,3.3883,3.3833,3.3806,3.3852,3.3848,3.3698,3.3696,3.3693,3.367,0,0,0,0,0,0,3.4062,3.4051,3.4032,3.4006,3.3995,3.3931,3.3957,3.3954,3.3935,3.3937,3.3905,3.3901,3.3893,3.3839,3.3829,3.3801,3.3845,3.3701,3.3697,3.3694,3.3673,3.3667,3.3662,0,0,0,0,0,3.4066,3.4026,3.4031,3.4021,3.3971,3.3929,3.3922,3.3917,3.3933,3.3912,3.3897,3.3902,3.3811,3.3834,3.3823,3.3793,3.3702,3.3698,3.3694,3.3676,3.3669,3.3662,0,0,0,0,0,0,3.4045,3.4022,3.4028,3.3978,3.3956,3.3931,3.3905,3.3909,3.3879,3.3882,3.3874,3.3866,3.3815,3.3799,3.3825,3.3736,3.3759,3.3752,3.3749,3.3741,3.3736,3.374,3.3841,0,0,0,0,0,3.4036,3.4007,3.3987,3.3945,3.3934,3.3922,3.3903,3.3901,3.3876,3.3866,3.3847,3.382,3.3786,3.3763,3.373,3.3672,3.3663,3.3646,3.364,3.3636,3.3629,3.3596,3.3587,3.3679,3.3679,3.3679,0,0,3.4014,3.3998,3.398,3.3941,3.3923,3.3891,3.3913,3.3878,3.3853,3.386,3.3812,3.3797,3.3766,3.3712,3.3687,3.3697,3.3602,3.363,3.3627,3.3623,3.3591,3.3582,3.3574,3.3676,3.3677,3.3677,0,0,3.3957,3.3944,3.3907,3.389,3.3864,3.3856,3.3847,3.3822,3.3813,3.3766,3.377,3.3738,3.368,3.3657,3.3638,3.3574,3.3576,3.3563,3.3532,3.35,3.3492,3.3486,3.3461,3.3452,3.3557,3.3557,3.3557,0,3.3933,3.3887,3.3886,3.3852,3.3833,3.3841,3.3802,3.3784,3.3748,3.3733,3.3747,3.3673,3.3652,3.3592,3.3577,3.3562,3.3549,3.3566,3.3494,3.3488,3.3481,3.3457,3.3448,3.3556,3.3556,3.3556,3.3556,0,3.3857,3.3826,3.3798,3.3767,3.3745,3.3708,3.3699,3.3677,3.3677,3.3666,3.3616,3.3593,3.3555,3.3541,3.3539,3.3479,3.3486,3.3497,3.3519,3.3471,3.3448,3.3439,3.3553,3.3554,3.3554,3.3555,0,0,3.3785,3.3754,3.3744,3.3729,3.3702,3.3676,3.3638,3.3604,3.3584,3.3559,3.3525,3.3475,3.3485,3.3463,3.3459,3.3431,3.3379,3.3444,3.3443,3.3431,3.3309,3.3301,3.329,3.3382,3.338,3.3378,3.3311,0,3.3725,3.3662,3.366,3.3601,3.357,3.3578,3.3544,3.3522,3.3511,3.3481,3.3468,3.3432,3.3449,3.3436,3.3408,3.3391,3.3354,3.3396,3.3346,3.3345,3.3352,3.3279,3.3269,3.3207,3.3303,3.3301,3.33,0,3.3646,3.3622,3.3561,3.3538,3.3525,3.3495,3.3463,3.3436,3.341,3.3403,3.338,3.338,3.3337,3.3363,3.3303,3.3331,3.3311,3.3299,3.3297,3.329,3.3318,3.3268,3.3187,3.3177,3.3286,3.3288,3.3289,0,3.3598,3.3549,3.3506,3.3493,3.3466,3.3445,3.3431,3.3408,3.3387,3.3358,3.3344,3.3309,3.329,3.3261,3.325,3.327,3.319,3.3215,3.3181,3.3181,3.3162,3.3163,3.3075,3.3152,3.3153,3.3153,3.3153,0,3.353,3.3491,3.3484,3.3457,3.3414,3.3411,3.3367,3.3354,3.3333,3.3301,3.3305,3.3274,3.3263,3.323,3.3221,3.3172,3.3163,3.3154,3.3152,3.3153,3.3154,3.3138,3.3141,3.315,3.3151,3.3151,3.3152,0,3.3467,3.3461,3.3414,3.3393,3.3387,3.3355,3.3335,3.3308,3.3298,3.3258,3.3248,3.3232,3.3193,3.318,3.3132,3.3126,3.3068,3.307,3.3078,3.3077,3.3043,3.3046,3.294,3.2925,3.3014,3.3013,3.3012,0,3.3424,3.3395,3.3371,3.3352,3.3339,3.3308,3.3288,3.3283,3.3261,3.323,3.3205,3.3168,3.3137,3.3074,3.3056,3.3018,3.3018,3.2984,3.3012,3.3014,3.3015,3.3017,3.3012,3.2978,3.2977,3.2976,3.2976,0,3.3346,3.3345,3.3317,3.3289,3.3265,3.3241,3.3218,3.3201,3.3193,3.3168,3.313,3.3107,3.3059,3.3021,3.2983,3.2965,3.2967,3.2967,3.2957,3.2957,3.2962,3.2957,3.3061,3.2969,3.297,3.297,3.2971,3.2971,3.329,3.3265,3.3244,3.3213,3.3196,3.3175,3.3148,3.3136,3.3106,3.3069,3.3067,3.3025,3.2998,3.2949,3.293,3.2895,3.2904,3.289,3.2885,3.2881,3.2878,3.2969,3.2888,3.2888,3.2888,3.2888,3.2888,0,3.3211,3.3199,3.3171,3.314,3.3115,3.3124,3.3098,3.3076,3.304,3.3017,3.2988,3.2943,3.2906,3.2885,3.2847,3.2822,3.2822,3.2812,3.2813,3.2808,3.2873,3.2885,3.2813,3.2813,3.2813,3.2813,3.2813,3.2813,3.3167,3.3124,3.312,3.3068,3.3055,3.3017,3.3001,3.298,3.2962,3.2913,3.2883,3.2872,3.2848,3.2808,3.2773,3.2768,3.2752,3.2741,3.2736,3.2796,3.2804,3.2811,3.2822,3.2738,3.2738,3.2674,3.2673,3.2673]}]]